Location: Augsburg
(48.3836°N, 10.8929°E)
Time: 17:19:14
(UTC+02:00)

ISS - Pass Details

Date: 27 May 2021
Orbit: 417 x 422 km, 51.6° (Epoch: 12 June)

Event Time Altitude Azimuth Distance (km) Brightness Sun altitude
Rises 23:50:39 0° 287° (WNW) 2,368 0.6 -17.7°
Reaches altitude 10° 23:53:07 10° 269° (W) 1,502 -0.7 -17.9°
Enters shadow 23:55:01 19° 236° (SW) 1,076 -1.8 -18.0°
